Weather History for Lander, WY

Change the Weather History Date:

Saturday, September 1, 2012

  Actual Average Record
Temperature  
Mean Temperature 72 °F 65 °F  
Max Temperature 84 °F 80 °F 94 °F (1983)
Min Temperature 59 °F 50 °F 33 °F (1905)
Degree Days  
Heating Degree Days 0 2  
Month to date heating degree days 0 2  
Since 1 July heating degree days 2 42  
Cooling Degree Days 7 3  
Month to date cooling degree days 7 3  
Year to date cooling degree days 750 448  
Growing Degree Days 21 (Base 50)    
Moisture  
Dew Point 42 °F    
Average Humidity 38    
Maximum Humidity 55    
Minimum Humidity 20    
Precipitation  
Precipitation T in 0.02 in 1.21 in (1973)
Month to date precipitation T 0.02  
Year to date precipitation 4.68 8.90  
Snow  
Snow 0.00 in 0.00 in - ()
Month to date snowfall 0.0 0.0  
Since 1 July snowfall 0.0 0.0  
Since 1 September snowfall 0.0 0.0  
Snow Depth 0.00 in    
Sea Level Pressure  
Sea Level Pressure 29.87 in    
Wind  
Wind Speed 12 mph (WSW)    
Max Wind Speed 39 mph    
Max Gust Speed 51 mph    
Visibility 10 miles    
Events Thunderstorm    
T = Trace of Precipitation, MM = Missing Value Source: NWS Daily Summary

Daily Weather History Graph

Daily Weather History Graph

Search for Another Location

Airport:

Trip Planner

Search our weather history database for the weather conditions in past years. The results will help you decide how hot, cold, wet, or windy it might be!

Date:

Astronomy

Sep. 01, 2012 Rise Set
Actual Time 6:40 AM MDT 7:48 PM MDT
Civil Twilight 6:11 AM MDT 8:17 PM MDT
Nautical Twilight 5:36 AM MDT 8:52 PM MDT
Astronomical Twilight 4:59 AM MDT 9:28 PM MDT
Moon 8:02 PM MDT (9/1) 7:54 AM MDT (9/1)
Length of Visible Light 14h 06m
Length of Day
13h 08m
Full, 98% of the Moon is Illuminated
Sep 1
Full
Sep 8
Last Quarter
Sep 15
New
Sep 22
First Quarter
Sep 29
Full

Hourly Weather History & Observations

Time (MDT) Temp. Dew Point Humidity Pressure Visibility Wind Dir Wind Speed Gust Speed Precip Events Conditions
12:53 AM 66.9 °F 43.0 °F 42% 29.83 in 10.0 mi ESE 9.2 mph - N/A   Partly Cloudy
1:53 AM 66.0 °F 43.0 °F 43% 29.82 in 10.0 mi Calm Calm - N/A   Clear
2:53 AM 69.1 °F 43.0 °F 39% 29.80 in 10.0 mi WSW 5.8 mph - N/A   Clear
3:53 AM 69.1 °F 43.0 °F 39% 29.80 in 10.0 mi WSW 15.0 mph 19.6 mph N/A   Clear
4:53 AM 62.1 °F 43.0 °F 50% 29.81 in 10.0 mi NW 8.1 mph 17.3 mph N/A   Clear
5:53 AM 62.1 °F 43.0 °F 50% 29.83 in 10.0 mi Variable 5.8 mph - N/A   Partly Cloudy
6:53 AM 60.1 °F 44.1 °F 55% 29.84 in 10.0 mi SSE 4.6 mph - N/A   Clear
7:53 AM 63.0 °F 44.1 °F 50% 29.86 in 10.0 mi NW 12.7 mph 17.3 mph N/A   Clear
8:53 AM 68.0 °F 46.0 °F 45% 29.86 in 10.0 mi NW 5.8 mph - N/A   Clear
9:53 AM 70.0 °F 44.1 °F 39% 29.90 in 10.0 mi SW 20.7 mph 31.1 mph N/A   Mostly Cloudy
10:00 AM 69.8 °F 44.6 °F 40% 30.10 in 10.0 mi SW 25.3 mph 33.4 mph N/A   Mostly Cloudy
10:53 AM 69.1 °F 41.0 °F 36% 29.88 in 10.0 mi WSW 19.6 mph 33.4 mph N/A   Clear
11:53 AM 79.0 °F 42.1 °F 27% 29.82 in 10.0 mi West 15.0 mph 23.0 mph N/A   Clear
12:53 PM 78.1 °F 41.0 °F 27% 29.84 in 10.0 mi West 16.1 mph 21.9 mph N/A   Clear
1:53 PM 78.1 °F 39.9 °F 25% 29.84 in 10.0 mi West 8.1 mph 18.4 mph N/A   Clear
2:53 PM 82.9 °F 37.9 °F 20% 29.81 in 10.0 mi West 13.8 mph 25.3 mph N/A   Clear
3:53 PM 80.1 °F 36.0 °F 20% 29.80 in 10.0 mi SW 10.4 mph 26.5 mph N/A   Partly Cloudy
4:53 PM 79.0 °F 37.9 °F 23% 29.81 in 10.0 mi WSW 13.8 mph 18.4 mph N/A   Mostly Cloudy
5:53 PM 77.0 °F 43.0 °F 30% 29.80 in 10.0 mi SW 15.0 mph 23.0 mph N/A   Clear
6:35 PM 75.2 °F 42.8 °F 31% 30.03 in 10.0 mi SW 20.7 mph - N/A Thunderstorm Thunderstorm
6:51 PM 73.4 °F 41.0 °F 31% 30.06 in 10.0 mi WSW 33.4 mph 44.9 mph N/A   Partly Cloudy
6:53 PM 73.0 °F 41.0 °F 31% 29.88 in 10.0 mi WSW 39.1 mph 47.2 mph N/A   Scattered Clouds
7:53 PM 69.1 °F 42.1 °F 38% 29.91 in 10.0 mi South 17.3 mph 31.1 mph 0.00 in   Partly Cloudy
8:53 PM 68.0 °F 41.0 °F 37% 29.91 in 10.0 mi WSW 6.9 mph - N/A   Partly Cloudy
9:53 PM 64.9 °F 42.1 °F 43% 29.91 in 10.0 mi Variable 3.5 mph - N/A   Clear
10:53 PM 66.9 °F 39.9 °F 37% 29.91 in 10.0 mi SW 8.1 mph - N/A   Clear
11:53 PM 68.0 °F 39.9 °F 36% 29.88 in 10.0 mi SW 13.8 mph 23.0 mph N/A   Clear